Spearman, TX

4:20 PM CDT on August 28, 2016 (GMT -0500)
Pampa / Mesa Vista

Weather History for KBPC - November, 2013

Change the Weather History Date:

Wednesday, November 20, 2013

  Actual Average (KBGD) Record (KBGD)
Temperature  
Mean Temperature 54 °F 47 °F  
Max Temperature 64 °F 59 °F 85 °F (1996)
Min Temperature 44 °F 34 °F 17 °F (1985)
Degree Days  
Heating Degree Days 11 18  
Month to date heating degree days 289  
Since 1 July heating degree days 510  
Cooling Degree Days 0 0  
Month to date cooling degree days 0  
Year to date cooling degree days 1835  
Growing Degree Days 4 (Base 50)    
Moisture  
Dew Point 37 °F    
Average Humidity 52    
Maximum Humidity 87    
Minimum Humidity 24    
Precipitation  
Precipitation 0.00 in 0.02 in 0.17 in (1973)
Month to date precipitation 0.62  
Year to date precipitation 20.73  
Snow  
Snow 0.00 in - 1.70 in (1973)
Month to date snowfall  
Since 1 July snowfall  
Since 1 September snowfall  
Snow Depth -    
Sea Level Pressure  
Sea Level Pressure 29.80 in    
Wind  
Wind Speed 12 mph (SW)    
Max Wind Speed 26 mph    
Max Gust Speed 36 mph    
Visibility 10 miles    
Events      
T = Trace of Precipitation, MM = Missing Value Source: NWS Daily Summary

Daily Weather History Graph

Daily Weather History Graph

Search for Another Location

Airport or City:

Trip Planner

Search our weather history database for the weather conditions in past years. The results will help you decide how hot, cold, wet, or windy it might be!

Date:

Astronomy

Nov. 20, 2013 Rise Set
Actual Time 7:25 AM CST 5:33 PM CST
Civil Twilight 6:58 AM CST 6:01 PM CST
Nautical Twilight 6:26 AM CST 6:32 PM CST
Astronomical Twilight 5:56 AM CST 7:02 PM CST
Moon 8:18 PM CST (11/20) 9:52 AM CST (11/20)
Length of Visible Light 11h 03m
Length of Day
10h 08m
Waning Gibbous, 91% of the Moon is Illuminated
Nov 20
Waning Gibbous
Nov 25
Last Quarter
Dec 2
New
Dec 9
First Quarter
Dec 17
Full

Hourly Weather History & Observations

Time (CST) Temp. Windchill Dew Point Humidity Pressure Visibility Wind Dir Wind Speed Gust Speed Precip Events Conditions
12:15 AM 57.2 °F - 44.6 °F 63% 29.75 in 10.0 mi South 25.3 mph 32.2 mph N/A   Clear
12:35 AM 57.2 °F - 44.6 °F 63% 29.75 in 10.0 mi South 26.5 mph 35.7 mph N/A   Clear
12:55 AM 57.2 °F - 44.6 °F 63% 29.76 in 10.0 mi South 19.6 mph 28.8 mph N/A   Clear
1:15 AM 57.2 °F - 46.4 °F 67% 29.76 in 10.0 mi SSW 16.1 mph 21.9 mph N/A   Clear
1:35 AM 57.2 °F - 46.4 °F 67% 29.76 in 10.0 mi SW 10.4 mph 17.3 mph N/A   Clear
1:55 AM 55.4 °F - 46.4 °F 72% 29.76 in 10.0 mi SSW 9.2 mph - N/A   Clear
2:15 AM 55.4 °F - 46.4 °F 72% 29.76 in 10.0 mi SSW 12.7 mph - N/A   Clear
2:35 AM 55.4 °F - 46.4 °F 72% 29.75 in 10.0 mi SSW 12.7 mph - N/A   Clear
2:55 AM 55.4 °F - 48.2 °F 77% 29.75 in 10.0 mi South 16.1 mph - N/A   Clear
3:15 AM 55.4 °F - 48.2 °F 77% 29.75 in 10.0 mi South 17.3 mph 23.0 mph N/A   Clear
3:35 AM 55.4 °F - 48.2 °F 77% 29.75 in 10.0 mi SSW 17.3 mph 21.9 mph N/A   Clear
3:55 AM 53.6 °F - 48.2 °F 82% 29.74 in 10.0 mi SSW 13.8 mph 20.7 mph N/A   Clear
4:15 AM 53.6 °F - 48.2 °F 82% 29.75 in 10.0 mi SSW 16.1 mph 23.0 mph N/A   Clear
4:35 AM 53.6 °F - 46.4 °F 77% 29.75 in 10.0 mi SSW 17.3 mph 25.3 mph N/A   Clear
4:55 AM 53.6 °F - 46.4 °F 77% 29.74 in 10.0 mi SSW 16.1 mph 20.7 mph N/A   Clear
5:15 AM 53.6 °F - 46.4 °F 77% 29.75 in 10.0 mi SSW 17.3 mph - N/A   Clear
5:35 AM 53.6 °F - 46.4 °F 77% 29.75 in 10.0 mi SSW 17.3 mph 20.7 mph N/A   Clear
5:55 AM 51.8 °F - 46.4 °F 82% 29.76 in 10.0 mi SW 15.0 mph - N/A   Clear
6:15 AM 51.8 °F - 44.6 °F 76% 29.77 in 10.0 mi SW 15.0 mph - N/A   Clear
6:35 AM 50.0 °F - 44.6 °F 82% 29.77 in 10.0 mi SW 11.5 mph - N/A   Clear
6:55 AM 50.0 °F - 44.6 °F 82% 29.78 in 10.0 mi SSW 10.4 mph - N/A   Clear
7:15 AM 50.0 °F - 42.8 °F 76% 29.80 in 10.0 mi NNW 4.6 mph - N/A   Clear
7:35 AM 44.6 °F 41.4 °F 41.0 °F 87% 29.80 in 10.0 mi SW 5.8 mph - N/A   Clear
7:55 AM 46.4 °F 41.5 °F 42.8 °F 87% 29.80 in 10.0 mi SW 10.4 mph - N/A   Clear
8:15 AM 48.2 °F - 41.0 °F 76% 29.80 in 10.0 mi SW 11.5 mph - N/A   Clear
8:35 AM 51.8 °F - 41.0 °F 67% 29.81 in 10.0 mi SW 10.4 mph - N/A   Clear
8:55 AM 51.8 °F - 39.2 °F 62% 29.82 in 10.0 mi SW 10.4 mph - N/A   Clear
9:15 AM 53.6 °F - 37.4 °F 54% 29.82 in 10.0 mi WSW 10.4 mph - N/A   Clear
9:35 AM 55.4 °F - 37.4 °F 51% 29.82 in 10.0 mi WSW 8.1 mph - N/A   Clear
9:55 AM 57.2 °F - 37.4 °F 48% 29.82 in 10.0 mi WSW 6.9 mph - N/A   Clear
10:15 AM 59.0 °F - 33.8 °F 39% 29.83 in 10.0 mi Calm Calm - N/A   Clear
10:35 AM 59.0 °F - 33.8 °F 39% 29.84 in 10.0 mi NW 4.6 mph - N/A   Clear
10:55 AM 60.8 °F - 33.8 °F 36% 29.82 in 10.0 mi North 3.5 mph - N/A   Clear
11:15 AM 60.8 °F - 30.2 °F 31% 29.82 in 10.0 mi NW 5.8 mph - N/A   Clear
11:35 AM 60.8 °F - 28.4 °F 29% 29.81 in 10.0 mi NW 4.6 mph - N/A   Clear
11:55 AM 64.4 °F - 28.4 °F 26% 29.81 in 10.0 mi NW 6.9 mph - N/A   Clear
12:15 PM 64.4 °F - 26.6 °F 24% 29.80 in 10.0 mi North 5.8 mph - N/A   Clear
12:35 PM 64.4 °F - 26.6 °F 24% 29.80 in 10.0 mi NW 6.9 mph - N/A   Clear
12:55 PM 64.4 °F - 26.6 °F 24% 29.80 in 10.0 mi WNW 5.8 mph - N/A   Clear
1:15 PM 62.6 °F - 26.6 °F 26% 29.80 in 10.0 mi NW 4.6 mph - N/A   Clear
1:35 PM 62.6 °F - 26.6 °F 26% 29.80 in 10.0 mi NW 5.8 mph - N/A   Clear
1:55 PM 62.6 °F - 28.4 °F 27% 29.79 in 10.0 mi NNW 4.6 mph - N/A   Clear
2:15 PM 62.6 °F - 28.4 °F 27% 29.79 in 10.0 mi North 6.9 mph - N/A   Clear
2:35 PM 60.8 °F - 30.2 °F 31% 29.79 in 10.0 mi North 6.9 mph - N/A   Clear
2:55 PM 60.8 °F - 30.2 °F 31% 29.79 in 10.0 mi NNW 5.8 mph - N/A   Clear
3:15 PM 60.8 °F - 30.2 °F 31% 29.80 in 10.0 mi WNW 4.6 mph - N/A   Clear
3:35 PM 60.8 °F - 30.2 °F 31% 29.80 in 10.0 mi West 4.6 mph - N/A   Clear
3:55 PM 60.8 °F - 30.2 °F 31% 29.80 in 10.0 mi West 3.5 mph - N/A   Clear
4:15 PM 60.8 °F - 30.2 °F 31% 29.79 in 10.0 mi Calm Calm - N/A   Clear
4:35 PM 60.8 °F - 30.2 °F 31% 29.80 in 10.0 mi Calm Calm - N/A   Clear
4:55 PM 59.0 °F - 32.0 °F 36% 29.81 in 10.0 mi South 4.6 mph - N/A   Clear
5:15 PM 59.0 °F - 32.0 °F 36% 29.80 in 10.0 mi Calm Calm - N/A   Clear
5:35 PM 57.2 °F - 32.0 °F 38% 29.78 in 10.0 mi NE 4.6 mph - N/A   Clear
5:55 PM 55.4 °F - 32.0 °F 41% 29.78 in 10.0 mi ENE 4.6 mph - N/A   Clear
6:15 PM 55.4 °F - 32.0 °F 41% 29.80 in 10.0 mi Calm Calm - N/A   Clear
6:35 PM 53.6 °F - 33.8 °F 47% 29.80 in 10.0 mi SE 4.6 mph - N/A   Clear
6:55 PM 53.6 °F - 32.0 °F 44% 29.81 in 10.0 mi South 4.6 mph - N/A   Clear
7:15 PM 53.6 °F - 33.8 °F 47% 29.84 in 10.0 mi SSW 6.9 mph - N/A   Clear
7:35 PM 55.4 °F - 32.0 °F 41% 29.84 in 7.0 mi South 8.1 mph - N/A   Clear
7:55 PM 53.6 °F - 32.0 °F 44% 29.84 in 10.0 mi SSW 4.6 mph - N/A   Clear
8:15 PM 55.4 °F - 32.0 °F 41% 29.83 in 10.0 mi SSE 6.9 mph - N/A   Clear
8:35 PM 55.4 °F - 32.0 °F 41% 29.84 in 10.0 mi SSE 6.9 mph - N/A   Clear
8:55 PM 59.0 °F - 30.2 °F 34% 29.84 in 10.0 mi Calm Calm - N/A   Clear
9:15 PM 55.4 °F - 32.0 °F 41% 29.83 in 10.0 mi SE 6.9 mph - N/A   Clear
9:35 PM 55.4 °F - 32.0 °F 41% 29.85 in 10.0 mi Calm Calm - N/A   Clear
9:55 PM 53.6 °F - 32.0 °F 44% 29.85 in 10.0 mi Calm Calm - N/A   Clear
10:15 PM 53.6 °F - 32.0 °F 44% 29.85 in 10.0 mi SW 3.5 mph - N/A   Clear
10:35 PM 51.8 °F - 32.0 °F 47% 29.86 in 10.0 mi Calm Calm - N/A   Clear
10:55 PM 51.8 °F - 32.0 °F 47% 29.86 in 10.0 mi Calm Calm - N/A   Clear
11:15 PM 51.8 °F - 33.8 °F 50% 29.84 in 10.0 mi North 4.6 mph - N/A   Clear
11:35 PM 51.8 °F - 33.8 °F 50% 29.86 in 10.0 mi Calm Calm - N/A   Clear
11:55 PM 51.8 °F - 33.8 °F 50% 29.86 in 10.0 mi Calm Calm - N/A   Clear